Wind_Speed
13 12 10 12 13 9 9 9 12 10 13 11 11 12 12 13 13 16 19 18 23 22 20 21 21 21 22 23 23 24 24 25
13 10 11 14 8 7 9 11 14 13 10 14 13 13 13 13 14 18 17 22 22 23 22 23 22 23 23 23 24 25 25 24
11 8 14 10 6 8 9 11 13 14 12 14 12 14 13 13 15 16 19 19 22 21 23 23 24 26 23 24 24 26 25 24
10 12 12 6 6 8 9 11 12 13 15 13 14 13 13 15 17 19 21 21 21 22 22 23 26 23 24 23 23 24 28 26
11 14 8 5 4 6 8 10 12 13 15 15 15 15 15 16 18 21 20 20 21 21 23 26 23 23 22 24 24 25 25 27
14 11 8 7 7 7 9 10 12 13 14 15 15 15 15 17 19 21 21 21 21 22 26 28 24 23 24 24 25 26 24 26
11 9 7 5 4 8 10 11 12 13 14 14 15 16 16 19 21 22 25 23 24 24 29 29 25 25 26 26 26 26 26 24
12 9 8 5 6 8 10 11 12 13 13 14 15 15 16 18 21 23 25 26 26 28 29 29 27 27 26 27 27 27 25 25
11 10 5 4 4 7 10 11 11 13 13 14 15 16 18 19 22 23 24 26 28 26 30 28 28 27 26 27 28 26 26 27
13 7 5 5 5 6 9 10 11 12 14 15 16 18 19 21 23 23 26 26 28 28 27 28 28 27 28 28 26 25 31 32
11 7 5 5 5 8 9 10 11 12 14 15 17 19 20 21 23 25 26 27 27 27 27 28 28 28 29 29 24 32 33 36
9 7 4 4 5 8 9 10 11 13 15 17 18 20 20 22 23 25 26 27 28 27 27 28 28 30 31 27 32 39 39 38
9 7 7 5 5 8 9 11 12 14 15 17 19 20 21 23 25 25 26 28 27 27 27 28 30 31 31 28 35 52 40 33
11 9 6 7 7 8 9 11 13 14 16 17 20 21 22 24 25 26 27 28 27 28 28 29 30 32 31 34 47 54 34 27
11 7 6 6 7 8 9 11 13 14 16 17 20 22 22 24 25 25 27 27 27 29 28 29 30 34 31 39 51 48 30 29
10 8 7 6 7 8 9 11 13 14 16 18 20 21 21 24 25 26 26 26 27 30 30 30 32 31 33 44 52 43 35 33
10 9 7 7 7 8 9 11 13 15 16 18 19 21 21 23 24 25 26 28 29 31 31 31 32 34 36 45 52 38 32 36
11 9 8 8 8 8 9 11 12 14 16 17 19 20 20 22 23 26 29 29 30 30 32 32 34 33 40 49 47 34 32 35
12 11 10 8 7 8 8 10 12 14 16 17 18 20 20 22 23 26 27 29 30 31 32 33 36 35 42 45 40 35 36 36
Wind_Direction
124 112 94 73 69 59 31 22 8 28 353 0 351 346 343 340 344 333 336 333 333 334 341 326 332 329 320 318 322 320 317 316
120 100 95 92 82 53 33 14 4 16 17 358 357 357 350 343 341 338 336 332 334 336 330 331 330 322 321 321 321 316 315 315
122 115 101 96 83 49 31 18 7 11 22 358 2 357 350 344 341 343 326 340 333 334 330 329 323 319 327 321 318 318 314 315
148 117 107 111 77 46 21 16 13 6 7 360 9 1 357 346 347 336 340 334 336 333 331 321 317 329 320 323 320 319 318 313
128 120 132 107 68 36 23 11 11 5 0 5 9 360 354 347 340 333 341 337 334 333 324 320 333 325 329 322 317 317 317 315
136 134 122 91 69 38 22 7 6 0 5 2 359 354 356 342 335 343 334 344 336 336 326 333 330 332 323 319 321 318 315 314
138 139 123 86 55 34 13 10 2 1 360 358 354 352 353 347 339 342 338 340 338 335 332 334 336 331 330 328 323 323 320 319
155 144 119 89 51 27 18 10 3 0 355 356 354 351 348 346 341 341 342 339 339 337 332 337 335 331 331 328 327 325 323 314
158 120 114 76 51 20 19 13 5 358 356 355 352 350 346 344 342 342 340 339 335 338 335 337 333 335 333 330 329 330 323 321
128 120 107 70 34 23 15 12 3 358 356 355 351 350 348 346 343 342 339 338 341 335 338 335 337 336 334 334 333 326 324 318
125 130 98 65 43 16 13 11 4 358 358 354 351 349 349 344 345 342 342 342 340 341 340 338 339 337 335 332 317 321 322 315
132 125 85 78 43 21 11 8 4 1 360 354 351 350 350 347 346 343 345 343 343 344 341 342 341 337 336 326 316 322 327 322
135 115 112 40 33 24 15 9 8 5 0 358 348 350 351 351 346 348 348 344 348 345 344 343 340 339 339 321 324 334 330 326
126 100 74 77 43 32 20 13 8 7 1 359 350 353 357 351 350 352 349 347 350 349 347 344 343 343 328 327 336 341 338 333
111 106 103 67 50 35 26 15 8 8 3 1 356 356 359 349 353 355 348 353 351 349 347 346 344 345 325 334 338 342 343 340
122 112 92 72 56 37 26 16 10 8 5 3 360 356 359 351 357 352 352 354 353 351 350 349 347 346 334 337 337 341 349 342
118 108 97 79 59 41 27 17 13 9 9 6 360 359 0 357 359 353 356 357 357 354 351 352 350 345 339 335 335 338 346 338
123 113 103 85 62 43 32 20 13 12 12 9 2 2 4 1 358 358 359 359 357 355 356 355 351 350 339 336 340 350 350 344
124 120 109 92 65 53 35 26 20 16 16 12 6 7 8 5 4 4 4 4 359 359 360 357 350 353 343 342 344 356 353 347
Height
1560 1561 1563 1564 1566 1568 1566 1565 1562 1560 1558 1556 1554 1552 1550 1548 1545 1541 1538 1534 1530 1526 1522 1519 1515 1512 1508 1505 1502 1499 1496 1492
1561 1563 1565 1567 1569 1569 1567 1565 1562 1559 1557 1555 1553 1551 1549 1547 1544 1541 1537 1533 1529 1525 1521 1517 1514 1510 1506 1503 1500 1496 1492 1490
1562 1565 1566 1569 1570 1569 1568 1565 1563 1560 1557 1555 1553 1551 1549 1546 1543 1540 1536 1532 1528 1524 1520 1516 1512 1507 1504 1501 1497 1494 1490 1487
1564 1565 1566 1570 1570 1569 1568 1566 1563 1560 1557 1554 1551 1549 1547 1544 1542 1538 1534 1531 1527 1523 1519 1514 1509 1506 1502 1499 1495 1491 1486 1483
1563 1564 1569 1570 1569 1569 1568 1566 1563 1560 1557 1554 1552 1549 1547 1544 1541 1537 1534 1530 1526 1522 1516 1511 1508 1503 1500 1496 1492 1488 1484 1479
1563 1565 1569 1570 1570 1569 1568 1566 1563 1561 1558 1555 1552 1549 1547 1544 1540 1536 1532 1529 1525 1520 1514 1509 1505 1501 1497 1493 1488 1484 1481 1476
1563 1567 1569 1570 1569 1569 1568 1566 1563 1561 1558 1555 1553 1550 1547 1543 1539 1535 1531 1527 1523 1518 1513 1508 1503 1499 1494 1490 1485 1481 1477 1473
1564 1567 1569 1570 1570 1569 1568 1566 1564 1561 1559 1556 1553 1550 1547 1543 1539 1535 1530 1525 1521 1516 1511 1505 1501 1496 1492 1487 1482 1478 1474 1469
1564 1566 1569 1569 1570 1569 1568 1567 1564 1561 1559 1556 1553 1550 1547 1543 1539 1534 1530 1525 1520 1515 1509 1504 1499 1494 1489 1485 1479 1475 1471 1465
1563 1567 1569 1570 1570 1569 1568 1567 1564 1561 1559 1556 1553 1550 1547 1543 1539 1534 1529 1524 1519 1513 1507 1502 1497 1492 1487 1481 1476 1471 1466 1460
1564 1568 1569 1570 1571 1569 1568 1566 1564 1561 1559 1556 1553 1550 1546 1542 1538 1533 1528 1523 1517 1511 1506 1500 1495 1490 1484 1479 1472 1466 1461 1455
1565 1567 1569 1571 1571 1570 1568 1566 1564 1561 1559 1556 1553 1549 1545 1541 1537 1532 1527 1521 1515 1510 1505 1499 1494 1488 1482 1475 1468 1462 1454 1447
1565 1567 1569 1571 1571 1570 1568 1566 1564 1562 1559 1557 1553 1549 1545 1540 1536 1531 1526 1520 1515 1509 1504 1498 1492 1486 1480 1472 1465 1457 1447 1439
1565 1567 1570 1571 1571 1570 1568 1566 1564 1562 1560 1557 1552 1548 1544 1540 1535 1530 1525 1519 1514 1509 1504 1497 1491 1485 1476 1469 1461 1451 1442 1436
1565 1569 1570 1571 1571 1570 1569 1567 1565 1562 1560 1557 1553 1548 1544 1540 1535 1530 1525 1519 1514 1509 1503 1497 1490 1483 1474 1467 1457 1447 1439 1433
1566 1569 1570 1571 1571 1570 1569 1567 1566 1563 1560 1557 1553 1549 1545 1540 1535 1530 1525 1520 1515 1509 1502 1496 1489 1483 1473 1464 1454 1444 1436 1429
1566 1569 1571 1571 1571 1570 1569 1568 1566 1564 1561 1558 1554 1550 1546 1541 1536 1531 1526 1521 1515 1509 1502 1496 1489 1481 1472 1462 1452 1441 1433 1426
1567 1569 1571 1571 1571 1571 1570 1569 1567 1564 1561 1558 1555 1551 1546 1542 1537 1532 1527 1521 1516 1509 1503 1496 1489 1481 1470 1458 1446 1437 1430 1424
1567 1569 1571 1571 1571 1571 1571 1569 1567 1564 1562 1559 1555 1552 1548 1543 1539 1534 1528 1523 1517 1510 1503 1497 1488 1480 1469 1455 1445 1436 1428 1420